Location: Edoum�
(0.9447°N, 10.6482°E)
Time: 07:26:45
(UTC+00:00)

Ariane 3 Deb - Pass Details

Date: 04 October 2020
Orbit: 229 x 18408 km, 6.8° (Epoch: 21 October)

Event Time Altitude Azimuth Distance (km) Brightness Sun altitude
Exits shadow 03:49:48 25° 289° (WNW) 2,850 5.3 -19.1°
Maximum altitude 03:56:42 73° 9° (N) 3,102 6.0 -17.4°
Drops below altitude 10° 06:14:58 10° 94° (E) 22,890 13.3 17.1°
Sets 07:17:41 0° 96° (E) 21,617 11.5 32.7°
